{"data":{"norad_id":57757,"epoch":"2026-05-24T21:51:41.309856Z","epoch_age_seconds":75955,"freshness":"FRESH","line1":"1 57757U 23133B   26144.91089479  .00000400  00000+0  15483-3 0  9994","line2":"2 57757  81.0016  24.1647 0009540  46.0332 314.1633 14.28448390138139","mean_motion":14.2844839,"eccentricity":0.000954,"inclination_deg":81.0016,"raan_deg":24.1647,"arg_perigee_deg":46.0332,"mean_anomaly_deg":314.1633,"bstar":0.00015483,"rev_number":13813,"period_min":100.80868234938,"perigee_km":790.07691889287,"apogee_km":803.76693132198,"semimajor_km":7175.0589251074,"source":"CELESTRAK","updated_at":"2026-05-25T13:38:00.234653Z"}}